FENGYUN 1C DEB

Satellite information

Favourite Embed

Satellite Type and Status

DEBRISIN ORBIT

Key statistics

Satellite FENGYUN 1C DEB at a glance.

Uptime

9555

Days in orbit

Revolutions

≈ 13.3

Per day

Orbit

SSO

Sun Synchronous Orbit

Inclination

100.1

Latest

Satellite identification and parameters

Extended collection of information and parameters for FENGYUN 1C DEB.

Object identification

Identified? True

Debris? True

Object name: FENGYUN 1C DEB

International designator: 1999-025DPJ

Object number (NORAD): 35202

Object ID (CCSDS): 35202

Country: PEOPLES REPUBLIC OF CHINA (PRC)

Current information (Y/N): Y

RCS size: SMALL

Orbital parameters

Period: 107.909 minutes

Inclination: 100.1013 deg

SMA: 7508.156 km

Apoapsis: 1410.236 km

Periapsis: 849.806 km

RAAN: 232.8498 deg

Eccentricy: 0.0373214

Argument of periapsis: 32.5738 deg

Mean anomaly: 329.783 deg

Mean motion: 13.34451649 rev/day

Mean motion (dot): -0.00000264 rev/day2

B* drag term: -0.00029671 1/REarth

Two-line elements (TLE)

Creation date: July 5, 2025, 5:45 p.m.

Reference frame: TEME

Reference center: EARTH

Epoch: July 5, 2025, 1:25 a.m. UTC

TLE line 0: 0 FENGYUN 1C DEB

TLE line 1: 1 35202U 99025DPJ 25186.05908106 -.00000264 00000-0 -29671-3 0 9990

TLE line 2: 2 35202 100.1013 232.8498 0373214 32.5738 329.7830 13.34451649548339

Live tracking on map

Real-time ground track for satellite FENGYUN 1C DEB.

In-orbit conjunctions

A list of the most updated potential collisions computed for object FENGYUN 1C DEB.

Target Orbit TCA Probability of collision Miss distance Type
CZ-6A DEB LEO 2025-03-23 17:28:44 0.0004645964 52.0 (m) DEBRIS
COSMOS 1610 LEO 2024-09-13 05:09:47 0.0002618329 803.0 (m) PAYLOAD

Associated space launch

Chinese polar orbiting meteorological satellite

FENGYUN 1C DEB was lifted into orbit during the mission ‘Long March 4B | Feng Yun 1C’, on board a Long March 4B space rocket.

The launch took place on May 10, 1999, 1:33 a.m. from Launch Complex 7.

For more information about the launch, click the button.

Launch to space Long March 4B | Feng Yun 1C
Long March 4B | Feng Yun 1C

Agency: N/A

Status: Launch Successful

Launch date: May 10, 1999, 1:33 a.m. UTC

Rocket: Long March 4B

Launch pad: Launch Complex 7

Location: Taiyuan Satellite Launch Center, People's Republic of China

...

Latest news about this satellite

There are no fresh news available about this satellite. Check back as we update our databases every day.


Newsletter sign-up

Weekly statistics, charts and insights to help you stay on top of the space industry.